STARLINK-34146

Satellite information

Favourite Embed

Satellite Type and Status

PAYLOADIN ORBIT

Key statistics

Satellite STARLINK-34146 at a glance.

Uptime

204

Days in orbit

Revolutions

≈ 15.3

Per day

Orbit

LEO

Low Earth Orbit

Inclination

53.2

Latest

Satellite identification and parameters

Extended collection of information and parameters for STARLINK-34146.

Object identification

Identified? True

Debris? False

Object name: STARLINK-34146

International designator: 2025-110C

Object number (NORAD): 64098

Object ID (CCSDS): 64098

Country: UNITED STATES OF AMERICA (US)

Current information (Y/N): Y

RCS size: LARGE

Orbital parameters

Period: 94.106 minutes

Inclination: 53.1603 deg

SMA: 6853.401 km

Apoapsis: 476.577 km

Periapsis: 473.955 km

RAAN: 73.0118 deg

Eccentricy: 0.00019131

Argument of periapsis: 82.7758 deg

Mean anomaly: 277.346 deg

Mean motion: 15.3018365 rev/day

Mean motion (dot): 0.00053308 rev/day2

B* drag term: 0.0017999945 1/REarth

Two-line elements (TLE)

Creation date: Dec. 12, 2025, 10:14 a.m.

Reference frame: TEME

Reference center: EARTH

Epoch: Dec. 12, 2025, 5:57 a.m. UTC

TLE line 0: 0 STARLINK-34146

TLE line 1: 1 64098U 25110C 25346.24839575 .00053308 00000-0 18000-2 0 9999

TLE line 2: 2 64098 53.1603 73.0118 0001913 82.7758 277.3460 15.30183650 32497

Live tracking on map

Real-time ground track for satellite STARLINK-34146.

In-orbit conjunctions

There are no conjunctions computed for STARLINK-34146, at the moment. Check back to stay up to date, as we update our databases every day.

Go to all conjunctions

Associated space launch

A batch of 27 satellites for the Starlink mega-constellation - SpaceX's project for space-based Internet communication system.

STARLINK-34146 was lifted into orbit during the mission ‘Falcon 9 Block 5 | Starlink Group 11-16’, on board a Falcon 9 space rocket.

The launch took place on May 23, 2025, 10:32 p.m. from Space Launch Complex 4E.

For more information about the launch, click the button.

Launch to space Falcon 9 Block 5 | Starlink Group 11-16
Falcon 9 Block 5 | Starlink Group 11-16

Agency: SpaceX

Status: Launch Successful

Launch date: May 23, 2025, 10:32 p.m. UTC

Rocket: Falcon 9

Launch pad: Space Launch Complex 4E

Location: Vandenberg SFB, CA, USA

...

Latest news about this satellite

News about space launch
Launch Roundup: SpaceX to start new Starlink shell; China, Russia to launch unknown payloads

This week, SpaceX will begin building a new shell for its Starlink constellation, launching from… The post Launch Roundup: SpaceX to start new Starlink shell; China, Russia to launch unknown payloads appeared first on NASASpaceFlight.com.


Newsletter sign-up

Weekly statistics, charts and insights to help you stay on top of the space industry.